GSAT0103 (GALILEO-FM3)  
1 38857U 12055A   19257.12679321 -.00000011  00000-0  00000+0 0  9991
2 38857  54.9402 169.4202 0003069 271.9020  88.0917  1.70473964 43089
GSAT0104 (GALILEO-FM4)  
1 38858U 12055B   19257.64766951 -.00000007  00000-0  00000-0 0  9991
2 38858  54.9407 169.4052 0002008 286.3155  73.6955  1.70473944 43090
FREGAT R/B              
1 38859U 12055C   19253.04123961 -.00000038  00000-0  00000+0 0  9993
2 38859  54.9263 172.8617 0005153 316.2758  43.6793  1.66705728 42068